• In Netherlands
  • List of Countries
  • For 7 days
  • Water Temperature
  • Satellite Maps
  • Weather Map
  • Weather Widgets
  • user-avatar
    Login

    Hourly Weather Artashat

    Today, 29 June, Thursday

    Time Temperature Precipitation Wind Pressure Humidity
    00:00 +19°C° 0 mm 2 mps 603 mmHg 44%
    01:00 +18°C° 0 mm 2 mps 602 mmHg 48%
    02:00 +17°C° 0 mm 2 mps 602 mmHg 51%
    03:00 +18°C° 0 mm 3 mps 602 mmHg 52%
    04:00 +18°C° 0.1 mm 3 mps 602 mmHg 54%
    05:00 +18°C° 0.1 mm 2 mps 602 mmHg 57%
    06:00 +18°C° 0.1 mm 2 mps 603 mmHg 59%
    07:00 +20°C° 0.1 mm 2 mps 603 mmHg 52%
    08:00 +23°C° 0.1 mm 2 mps 604 mmHg 44%
    09:00 +25°C° 0.1 mm 2 mps 605 mmHg 37%
    10:00 +26°C° 0.1 mm 2 mps 605 mmHg 33%
    11:00 +28°C° 0.1 mm 2 mps 605 mmHg 29%
    12:00 +29°C° 0.1 mm 1 mps 605 mmHg 25%
    13:00 +29°C° 0 mm 2 mps 605 mmHg 23%
    14:00 +30°C° 0 mm 2 mps 605 mmHg 21%
    15:00 +30°C° 0 mm 2 mps 605 mmHg 19%
    16:00 +30°C° 0 mm 3 mps 605 mmHg 20%
    17:00 +29°C° 0 mm 3 mps 605 mmHg 22%
    18:00 +28°C° 0 mm 3 mps 604 mmHg 23%
    19:00 +26°C° 0.1 mm 3 mps 604 mmHg 29%
    20:00 +23°C° 0.1 mm 2 mps 603 mmHg 35%
    21:00 +20°C° 0.1 mm 2 mps 603 mmHg 42%
    22:00 +19°C° 0 mm 2 mps 603 mmHg 46%
    23:00 +18°C° 0 mm 2 mps 603 mmHg 50%

    Tomorrow, 30 June, Friday

    Time Temperature Precipitation Wind Pressure Humidity
    00:00 +17°C° 0 mm 2 mps 602 mmHg 55%
    01:00 +17°C° 0 mm 2 mps 602 mmHg 58%
    02:00 +16°C° 0 mm 2 mps 602 mmHg 61%
    03:00 +15°C° 0 mm 2 mps 602 mmHg 64%
    04:00 +16°C° 0 mm 2 mps 602 mmHg 64%
    05:00 +16°C° 0 mm 2 mps 602 mmHg 63%
    06:00 +16°C° 0 mm 2 mps 603 mmHg 62%
    07:00 +18°C° 0 mm 2 mps 603 mmHg 55%
    08:00 +20°C° 0 mm 2 mps 604 mmHg 49%
    09:00 +21°C° 0 mm 2 mps 604 mmHg 42%
    10:00 +22°C° 0.1 mm 3 mps 604 mmHg 38%
    11:00 +25°C° 0.1 mm 3 mps 604 mmHg 34%
    12:00 +26°C° 0.1 mm 3 mps 605 mmHg 30%
    13:00 +27°C° 0.1 mm 3 mps 604 mmHg 29%
    14:00 +27°C° 0.1 mm 3 mps 604 mmHg 27%
    15:00 +27°C° 0.1 mm 2 mps 604 mmHg 26%
    16:00 +27°C° 0.2 mm 3 mps 604 mmHg 27%
    17:00 +26°C° 0.2 mm 3 mps 604 mmHg 29%
    18:00 +25°C° 0.2 mm 3 mps 604 mmHg 30%
    19:00 +22°C° 0.2 mm 3 mps 604 mmHg 36%
    20:00 +20°C° 0.2 mm 3 mps 604 mmHg 41%
    21:00 +18°C° 0.2 mm 3 mps 603 mmHg 47%
    22:00 +17°C° 0 mm 2 mps 603 mmHg 50%
    23:00 +16°C° 0 mm 2 mps 603 mmHg 53%

    Day after tomorrow, 1 July, Saturday

    Time Temperature Precipitation Wind Pressure Humidity
    00:00 +16°C° 0 mm 2 mps 603 mmHg 56%
    01:00 +15°C° 0 mm 2 mps 603 mmHg 59%
    02:00 +14°C° 0 mm 2 mps 603 mmHg 61%
    03:00 +14°C° 0 mm 2 mps 603 mmHg 64%
    04:00 +14°C° 0 mm 2 mps 603 mmHg 63%
    05:00 +14°C° 0 mm 2 mps 603 mmHg 61%
    06:00 +15°C° 0 mm 2 mps 604 mmHg 60%
    07:00 +17°C° 0 mm 2 mps 604 mmHg 51%
    08:00 +19°C° 0 mm 2 mps 605 mmHg 42%
    09:00 +21°C° 0 mm 2 mps 606 mmHg 33%
    10:00 +22°C° 0 mm 3 mps 606 mmHg 28%
    11:00 +25°C° 0 mm 3 mps 606 mmHg 24%
    12:00 +26°C° 0 mm 3 mps 607 mmHg 20%
    13:00 +27°C° 0 mm 3 mps 607 mmHg 19%
    14:00 +28°C° 0 mm 3 mps 607 mmHg 17%
    15:00 +28°C° 0 mm 3 mps 606 mmHg 16%
    16:00 +28°C° 0 mm 3 mps 606 mmHg 17%
    17:00 +27°C° 0 mm 3 mps 606 mmHg 18%
    18:00 +27°C° 0 mm 3 mps 606 mmHg 19%
    19:00 +24°C° 0 mm 2 mps 606 mmHg 23%
    20:00 +20°C° 0 mm 2 mps 605 mmHg 27%
    21:00 +18°C° 0 mm 2 mps 605 mmHg 31%
    22:00 +17°C° 0 mm 2 mps 605 mmHg 34%
    23:00 +16°C° 0 mm 1 mps 604 mmHg 37%

    2 July, Sunday

    Time Temperature Precipitation Wind Pressure Humidity
    00:00 +15°C° 0 mm 1 mps 604 mmHg 40%
    01:00 +15°C° 0 mm 1 mps 604 mmHg 42%
    02:00 +14°C° 0 mm 1 mps 604 mmHg 44%
    03:00 +14°C° 0 mm 1 mps 603 mmHg 45%
    04:00 +14°C° 0 mm 1 mps 604 mmHg 45%
    05:00 +15°C° 0 mm 1 mps 604 mmHg 44%
    06:00 +16°C° 0 mm 1 mps 604 mmHg 43%
    07:00 +19°C° 0 mm 1 mps 605 mmHg 37%
    08:00 +20°C° 0 mm 2 mps 606 mmHg 31%
    09:00 +23°C° 0 mm 2 mps 606 mmHg 25%
    10:00 +25°C° 0 mm 2 mps 606 mmHg 23%
    11:00 +26°C° 0 mm 3 mps 607 mmHg 20%
    12:00 +28°C° 0 mm 3 mps 607 mmHg 18%
    13:00 +28°C° 0 mm 3 mps 607 mmHg 17%
    14:00 +29°C° 0 mm 3 mps 606 mmHg 16%
    15:00 +29°C° 0 mm 3 mps 606 mmHg 15%
    16:00 +29°C° 0 mm 3 mps 606 mmHg 16%
    17:00 +29°C° 0 mm 3 mps 606 mmHg 17%
    18:00 +28°C° 0 mm 3 mps 606 mmHg 18%
    19:00 +25°C° 0 mm 2 mps 605 mmHg 23%
    20:00 +21°C° 0 mm 2 mps 604 mmHg 28%
    21:00 +20°C° 0 mm 1 mps 604 mmHg 33%
    22:00 +19°C° 0 mm 1 mps 604 mmHg 35%
    23:00 +18°C° 0 mm 1 mps 603 mmHg 37%

    3 July, Monday

    Time Temperature Precipitation Wind Pressure Humidity
    00:00 +18°C° 0 mm 1 mps 603 mmHg 39%
    01:00 +16°C° 0 mm 1 mps 603 mmHg 42%
    02:00 +15°C° 0 mm 1 mps 602 mmHg 45%
    03:00 +15°C° 0 mm 1 mps 602 mmHg 48%
    04:00 +16°C° 0 mm 1 mps 602 mmHg 48%
    05:00 +16°C° 0 mm 1 mps 603 mmHg 47%
    06:00 +18°C° 0 mm 1 mps 603 mmHg 46%
    07:00 +21°C° 0 mm 1 mps 604 mmHg 40%
    08:00 +23°C° 0 mm 1 mps 604 mmHg 34%
    09:00 +25°C° 0 mm 1 mps 605 mmHg 28%
    10:00 +26°C° 0 mm 2 mps 605 mmHg 25%
    11:00 +28°C° 0 mm 2 mps 605 mmHg 23%
    12:00 +29°C° 0 mm 2 mps 605 mmHg 20%
    13:00 +30°C° 0 mm 2 mps 605 mmHg 19%
    14:00 +30°C° 0 mm 2 mps 605 mmHg 18%
    15:00 +31°C° 0 mm 2 mps 605 mmHg 18%
    16:00 +30°C° 0.1 mm 2 mps 605 mmHg 19%
    17:00 +30°C° 0.1 mm 2 mps 604 mmHg 20%
    18:00 +29°C° 0.1 mm 2 mps 604 mmHg 22%
    19:00 +26°C° 0.1 mm 2 mps 603 mmHg 27%
    20:00 +24°C° 0.1 mm 2 mps 603 mmHg 32%
    21:00 +21°C° 0.1 mm 1 mps 602 mmHg 37%
    22:00 +20°C° 0 mm 1 mps 602 mmHg 40%
    23:00 +20°C° 0 mm 1 mps 602 mmHg 43%

    4 July, Tuesday

    Time Temperature Precipitation Wind Pressure Humidity
    00:00 +19°C° 0 mm 1 mps 601 mmHg 45%
    01:00 +18°C° 0 mm 1 mps 601 mmHg 46%
    02:00 +18°C° 0 mm 1 mps 601 mmHg 48%
    03:00 +16°C° 0 mm 1 mps 600 mmHg 49%
    04:00 +18°C° 0 mm 1 mps 601 mmHg 47%
    05:00 +19°C° 0 mm 1 mps 601 mmHg 46%
    06:00 +18°C° 0 mm 0 mps 602 mmHg 45%
    07:00 +22°C° 0 mm 1 mps 602 mmHg 38%
    08:00 +24°C° 0 mm 1 mps 603 mmHg 31%
    09:00 +27°C° 0 mm 1 mps 604 mmHg 24%
    10:00 +28°C° 0 mm 1 mps 604 mmHg 22%
    11:00 +29°C° 0 mm 1 mps 604 mmHg 20%
    12:00 +31°C° 0 mm 1 mps 605 mmHg 18%
    13:00 +31°C° 0 mm 1 mps 604 mmHg 18%
    14:00 +32°C° 0 mm 2 mps 604 mmHg 17%
    15:00 +32°C° 0 mm 2 mps 604 mmHg 16%
    16:00 +32°C° 0 mm 2 mps 604 mmHg 17%
    17:00 +31°C° 0 mm 2 mps 604 mmHg 18%
    18:00 +30°C° 0 mm 2 mps 603 mmHg 19%
    19:00 +28°C° 0 mm 1 mps 603 mmHg 23%
    20:00 +25°C° 0 mm 1 mps 602 mmHg 28%
    21:00 +23°C° 0 mm 1 mps 601 mmHg 32%
    22:00 +22°C° 0 mm 1 mps 601 mmHg 33%
    23:00 +21°C° 0 mm 1 mps 601 mmHg 35%
    Show more